Regional Weather Roundup
Issued by NWS

Home | Current Version | Previous Version | Text Only | Print | Product List | Glossary On
Versions: 1 2 3 4 5 6 7 8 9 10 11 12 13 14 15 16 17 18 19 20 21 22 23 24 25 26 27 28 29 30 31 32 33 34 35 36 37 38 39 40 41 42 43 44 45 46 47 48 49 50
000
ASUS44 KLIX 290910
RWRLA
LOUISIANA WEATHER ROUNDUP
NATIONAL WEATHER SERVICE NEW ORLEANS LA
300 AM CST SAT NOV 29 2014

NOTE: "FAIR" INDICATES FEW OR NO CLOUDS BELOW 12,000 FEET WITH NO
      SIGNIFICANT WEATHER AND/OR OBSTRUCTIONS TO VISIBILITY.
      SKY/WX - SKY CONDITION AND SIGNIFICANT WEATHER.
      TMP - AIR TEMPERATURE.    DP   - DEWPOINT TEMPERATURE.
      RH  - RELATIVE HUMIDITY.  PRES - PRESSURE.
      HX  - HEAT INDEX.         WCI  - WIND CHILL INDEX.

*  THESE STATIONS ARE NOT NWS OR FAA STATIONS AND ARE NOT UNDER
   NWS QUALITY CONTROL.

LAZ040-048-061>063-065-066-069-291000-
SOUTHEAST LOUISIANA

CITY           SKY/WX    TMP DP  RH WIND       PRES   REMARKS
N.O. AUDUBON     N/A     53  50  90 MISG        N/A
N.O. INTL ARPT CLEAR     50  47  89 SE7       30.21F
N.O. LAKEFRONT CLEAR     53  48  83 SE10      30.22F
N.O. DOWNTOWN* FAIR      55  46  71 SE5       30.22F
SLIDELL        PTCLDY    37  34  89 CALM      30.22F
BATON ROUGE    CLEAR     46  44  93 E3        30.19S
BOOTHVILLE     CLEAR     54  52  93 SE3       30.23F
BELLE CHASSE   CLEAR     42  38  85 CALM      30.22S
BOGALUSA*        N/A     36  33  90 CALM      30.24S
NEW ROADS*     FAIR      48  46  93 E6        30.18S
GONZALES*      FAIR      48  48 100 SE3       30.20S
HAMMOND*       CLEAR     41  37  87 CALM      30.22S
HOUMA*         CLEAR     47  47 100 CALM      30.21R FOG
PORT FOURCHON* PTSUNNY   63  57  82 SE5       30.24F

$$

LAZ041-044-053-054-291000-
SOUTHWEST LOUISIANA

CITY           SKY/WX    TMP DP  RH WIND       PRES   REMARKS
LAKE CHARLES   FOG       52  51  97 SE5       30.14S VSB 1/2
LAFAYETTE      CLEAR     53  51  93 S6        30.17F
PATTERSON      CLEAR     52  50  93 SE6       30.21F
SALT POINT       N/A     57  52  83 SE6       30.18S
NEW IBERIA     CLEAR     50  48  93 SE5       30.18F
CHENAULT AIRPK FOG       52  52 100 SE5       30.15S VSB 1/2

$$

LAZ027-028-291000-
CENTRAL LOUISIANA

CITY           SKY/WX    TMP DP  RH WIND       PRES   REMARKS
FORT POLK      CLOUDY    57  56  97 S10       30.12F
ALEXANDRIA INT CLOUDY    53  51  93 SE3       30.13F
ALEXANDRIA     CLEAR     47  46  97 CALM      30.15S

$$

LAZ001-002-291000-
NORTHWEST LOUISIANA

CITY           SKY/WX    TMP DP  RH WIND       PRES   REMARKS
SHREVEPORT     CLOUDY    60  56  86 S12       30.04F
BARKSDALE AFB  CLOUDY    59  56  89 S12       30.06S
DTN SHREVEPORT CLOUDY    59  55  87 S15       30.05F

$$

LAZ014-016-291000-
NORTHEAST LOUISIANA

CITY           SKY/WX    TMP DP  RH WIND       PRES   REMARKS
MONROE         CLOUDY    51  48  89 S7        30.13F
TALLULAH       CLEAR     46  42  86 S8        30.15F

$$



USA.gov is the U.S. government's official web portal to all federal, state and local government web resources and services.